THORAD DELTA 1 DEB, 8166

Orbit data source: Space-Track

THORAD DELTA 1 DEB, 8166 is space debris in SSO originally from a launch on Fri, 15 Nov 1974 UTC launched from the Air Force Western Test Range (AFWTR). Debris objects in space refer to the collection of defunct objects orbiting the Earth. Examples of debris include non-operational satellites, rocket bodies, and fragments generated from explosions, collisions, or faulty payload assembly.

Loading next visibility...
Identifier
8166, 1974-089AG
Orbit
SSO
Country
Flag of USUS
Related business
Manufacturer
Unknown
Mission
Spacecraft
Bus & Motor
Unknown
Mass
Unknown
Launch date (UTC)
1974-11-15 (51 years ago)
Launch vehicle
Unknown
Launch site
Air Force Western Test Range (AFWTR)
Object type
Payload
Rocket body
Debris
Shape & HBR
Unknown shape, 0.1 m
Radar Cross Section
Small (<0.1 m²)

Expand to show TLE details & history
Last TLE update: 8 months ago

TLE from 8 months ago
0 THORAD DELTA 1 DEB
1  8166U 74089AG  25240.47537478  .00000038  00000-0  54124-3 0  9997
2  8166 102.0005 229.9899 0037966 193.6826 317.7650 12.51601384317332
Epoch: 2025-08-28T11:24Z
TLE epoch observation values (Epoch: 2025-08-28T11:24:32.380Z)
Latitude
28.20095°
Longitude
-91.57038°
Altitude
1,438.998 km
Speed
7.155 km/s
True Right ascension
03h 46m 00s
True Declination
28° 04' 14"
Sunlit
Object was in daylight at epoch
Visualization orbit readout
Latitude
Unknown
Longitude
Unknown
Altitude
Unknown
Speed
Unknown
Apparent Right ascension
Unknown
Apparent Declination
Unknown
Sunlit
N/A
Visualization observer readout
Local Sidereal Time
17:58:44
Azimuth
Unknown
Elevation
Unknown
Doppler factor
Unknown
Orbital elements
Apogee altitude
1,485.104 km
Perigee altitude
1,425.623 km
Semi-major axis
7,833.5 km
Eccentricity
0.0038
Inclination
102.0005°
RAAN
229.9899°
Arg. of periapsis
193.6826°
True anomaly
317.47154°
Mean anomaly
317.765°
Eccentric anomaly
317.61837°
Mean motion
3.13047 °/min
Orbital period
115 mins
BSTAR
0.00054124
Loading maneuver chart data...
Computing Atmospheric mass density...

Documentation

Showing up to 5 results
|